Le nostre stazioni meteo in Italia

Pubblicità
Il mio iltempo24.it
Venezia/Tessera, Italia (16105): Temperatura & dewpoint: 18.07.2019 07:00:00 - 24.07.2019 07:00:00 (CEST)Venezia/Tessera, Italia (16105): velocità del vento: 18.07.2019 07:00:00 - 24.07.2019 07:00:00 (CEST)Venezia/Tessera, Italia (16105): direzione del vento: 18.07.2019 07:00:00 - 24.07.2019 07:00:00 (CEST)Venezia/Tessera, Italia (16105): reduced air pressure: 18.07.2019 07:00:00 - 24.07.2019 07:00:00 (CEST)Venezia/Tessera, Italia (16105): visibility: 18.07.2019 07:00:00 - 24.07.2019 07:00:00 (CEST)Venezia/Tessera, Italia (16105): precipitazioni: 18.07.2019 07:00:00 - 24.07.2019 07:00:00 (CEST)
Data & Tempo tt [°C] td [°C] ff [km/h] ff [kn] dd ppp [hPa] vv [km] rr [mm]
24.07.2019 07:00:00 24,0 20,0 8 4 NE - 10 -
24.07.2019 06:00:00 24,0 20,0 5 3 NNO - 10 -
24.07.2019 05:00:00 24,1 20,2 5 3 N 1016,5 10 0,0
24.07.2019 04:00:00 26,0 20,0 2 1 - - 10 -
24.07.2019 03:00:00 26,0 20,0 5 3 ESE - 10 -
24.07.2019 02:00:00 25,7 19,9 5 3 NE 1017,2 10 -
24.07.2019 01:00:00 27,0 20,0 5 3 O - 10 -
24.07.2019 00:00:00 28,0 21,0 9 5 SO - 10 -
23.07.2019 23:00:00 28,8 19,7 11 6 SO 1016,8 10 0,0
23.07.2019 22:00:00 30,0 20,0 15 8 SO - 10 -
23.07.2019 21:00:00 30,0 20,0 11 6 S - 10 -
23.07.2019 20:00:00 30,5 20,2 8 4 S 1016,7 10 -
23.07.2019 19:00:00 31,0 19,0 11 6 S - 10 -
23.07.2019 18:00:00 32,0 22,0 9 5 SSE - 10 -
23.07.2019 17:00:00 31,5 21,6 9 5 SSE 1017,7 10 0,0
23.07.2019 16:00:00 31,0 21,0 13 7 SSE - 10 -
23.07.2019 15:00:00 31,0 21,0 11 6 SE - 10 -
23.07.2019 14:00:00 31,8 15,9 9 5 S 1019,0 10 -
23.07.2019 13:00:00 31,0 19,0 8 4 SSE - 10 -
23.07.2019 12:00:00 30,0 20,0 5 3 SE - 10 -
23.07.2019 11:00:00 29,3 18,5 8 4 E 1019,8 10 0,0
23.07.2019 10:00:00 28,0 20,0 8 4 E - 10 -
23.07.2019 09:00:00 26,0 20,0 9 5 NE - 10 -
23.07.2019 08:00:00 24,8 19,9 9 5 NE 1019,9 10 -
23.07.2019 07:00:00 23,0 19,0 9 5 NNE - 10 -
23.07.2019 06:00:00 23,0 19,0 8 4 NNE - 10 -
23.07.2019 05:00:00 23,6 18,6 8 4 NNE 1019,3 10 0,0
23.07.2019 04:00:00 24,0 19,0 4 2 - - 10 -
23.07.2019 03:00:00 25,0 21,0 4 2 N - 10 -
23.07.2019 02:00:00 25,3 19,9 5 3 N 1019,9 10 -
23.07.2019 01:00:00 26,0 21,0 5 3 SO - 10 -
23.07.2019 00:00:00 27,0 21,0 4 2 - - 10 -
22.07.2019 23:00:00 27,6 20,0 4 2 SSE 1019,8 10 0,0
22.07.2019 22:00:00 28,0 20,0 9 5 SE - 10 -
22.07.2019 21:00:00 29,0 20,0 5 3 SE - 10 -
22.07.2019 20:00:00 29,7 20,5 5 3 ESE 1019,3 10 -
22.07.2019 19:00:00 31,0 18,0 5 3 SE - 10 -
22.07.2019 18:00:00 30,0 20,0 5 3 SSE - 10 -
22.07.2019 17:00:00 30,4 18,6 8 4 SSE 1020,0 10 0,0
22.07.2019 16:00:00 31,0 20,0 5 3 S - 10 -
22.07.2019 15:00:00 30,0 22,0 9 5 SE - 10 -
22.07.2019 14:00:00 29,8 21,4 11 6 SE 1021,0 10 -
22.07.2019 13:00:00 30,0 20,0 8 4 SSE - 10 -
22.07.2019 12:00:00 30,0 19,0 8 4 NNE - 10 -
22.07.2019 11:00:00 29,0 18,8 8 4 - 1021,6 10 0,0
22.07.2019 10:00:00 28,0 19,0 9 5 ENE - 10 -
22.07.2019 09:00:00 26,0 19,0 9 5 NE - 10 -
22.07.2019 08:00:00 25,1 18,7 13 7 NNE 1021,3 10 -
22.07.2019 07:00:00 24,0 19,0 11 6 NE - 10 -
22.07.2019 06:00:00 24,0 19,0 13 7 NE - 10 -
22.07.2019 05:00:00 23,2 20,8 9 5 NNE 1020,7 10 0,0
22.07.2019 04:00:00 24,0 22,0 8 4 NNE - 10 -
22.07.2019 03:00:00 - - - - - - - -
22.07.2019 02:00:00 25,1 22,6 9 5 N 1020,8 10 -
22.07.2019 01:00:00 25,0 23,0 5 3 NNO - 10 -
22.07.2019 00:00:00 26,0 23,0 4 2 ESE - 10 -
21.07.2019 23:00:00 25,9 23,0 8 4 ESE 1020,5 10 0,0
21.07.2019 22:00:00 27,0 22,0 9 5 ESE - 10 -
21.07.2019 21:00:00 27,0 22,0 8 4 ESE - 10 -
21.07.2019 20:00:00 27,9 22,2 8 4 SE 1018,4 10 -
21.07.2019 19:00:00 28,0 23,0 8 4 SE - 10 -
21.07.2019 18:00:00 28,0 22,0 11 6 SE - 10 -
21.07.2019 17:00:00 28,0 21,9 9 5 SSE 1018,2 10 0,0
21.07.2019 16:00:00 30,0 21,0 11 6 SSE - 10 -
21.07.2019 15:00:00 29,0 22,0 11 6 SSE - 10 -
21.07.2019 14:00:00 28,2 22,1 11 6 SSE 1018,8 10 -
21.07.2019 13:00:00 28,0 23,0 11 6 SSE - 10 -
21.07.2019 12:00:00 28,0 23,0 9 5 SE - 10 -
21.07.2019 11:00:00 26,9 22,4 8 4 SE 1018,9 10 0,0
21.07.2019 10:00:00 26,0 23,0 8 4 ENE - 9 -
21.07.2019 09:00:00 25,0 22,0 9 5 ENE - 8 -
21.07.2019 08:00:00 24,4 22,2 11 6 NE 1018,8 5 -
21.07.2019 07:00:00 23,0 21,0 9 5 NNE - 4,5 -
21.07.2019 06:00:00 22,0 21,0 9 5 NNE - 4,0 -
21.07.2019 05:00:00 22,7 21,6 8 4 NNE 1018,0 6 0,0
21.07.2019 04:00:00 24,0 23,0 8 4 E - 8 -
21.07.2019 03:00:00 24,0 23,0 11 6 ENE - 10 -
21.07.2019 02:00:00 23,6 22,0 15 8 NE 1018,7 10 -
21.07.2019 01:00:00 24,0 22,0 9 5 NNE - 10 -
21.07.2019 00:00:00 26,0 22,0 5 3 S - 10 -
20.07.2019 23:00:00 25,7 22,8 13 7 S 1017,8 10 0,0
20.07.2019 22:00:00 26,0 23,0 9 5 S - 10 -
20.07.2019 21:00:00 26,0 23,0 9 5 SSE - 10 -
20.07.2019 20:00:00 26,5 22,7 9 5 S 1016,6 10 -
20.07.2019 19:00:00 27,0 22,0 11 6 SSE - 10 -
20.07.2019 18:00:00 27,0 21,0 13 7 SE - 10 -
20.07.2019 17:00:00 27,5 20,3 13 7 SE 1017,2 10 0,0
20.07.2019 16:00:00 28,0 20,0 15 8 SE - 10 -
20.07.2019 15:00:00 28,0 19,0 11 6 SE - 10 -
20.07.2019 14:00:00 27,8 17,4 9 5 SSE 1018,0 10 -
20.07.2019 13:00:00 27,0 21,0 11 6 SE - 10 -
20.07.2019 12:00:00 27,0 21,0 9 5 SE - 10 -
20.07.2019 11:00:00 26,7 21,4 5 3 SSE 1018,1 10 0,0
20.07.2019 10:00:00 26,0 21,0 4 2 - - 9 -
20.07.2019 09:00:00 25,0 20,0 5 3 N - 7 -
20.07.2019 08:00:00 22,3 18,9 9 5 NNE 1017,3 6 -
20.07.2019 07:00:00 21,0 18,0 9 5 NNE - 8 -
20.07.2019 06:00:00 21,0 18,0 5 3 N - 8 -
20.07.2019 05:00:00 21,0 19,3 5 3 ENE 1016,6 10 0,0
20.07.2019 04:00:00 22,0 20,0 8 4 ENE - 10 -
20.07.2019 03:00:00 22,0 18,0 8 4 NE - 10 -
20.07.2019 02:00:00 22,2 18,1 8 4 N 1016,9 10 -
20.07.2019 01:00:00 24,0 18,0 5 3 ONO - 10 -
20.07.2019 00:00:00 25,0 19,0 9 5 SSO - 10 -
19.07.2019 23:00:00 25,3 19,4 9 5 S 1016,2 10 0,0
19.07.2019 22:00:00 26,0 18,0 8 4 S - 10 -
19.07.2019 21:00:00 26,0 17,0 8 4 S - 10 -
19.07.2019 20:00:00 26,1 17,1 8 4 SSE 1015,0 10 -
19.07.2019 19:00:00 28,0 19,0 8 4 S - 10 -
19.07.2019 18:00:00 28,0 19,0 9 5 SSE - 10 -
19.07.2019 17:00:00 28,0 17,9 9 5 SSE 1015,1 10 0,0
19.07.2019 16:00:00 28,0 18,0 11 6 SE - 10 -
19.07.2019 15:00:00 28,0 18,0 9 5 S - 10 -
19.07.2019 14:00:00 27,9 15,7 8 4 S 1015,8 10 -
19.07.2019 13:00:00 27,0 17,0 9 5 S - 10 -
19.07.2019 12:00:00 27,0 16,0 5 3 SSE - 10 -
19.07.2019 11:00:00 25,6 15,8 8 4 SE 1016,0 10 0,0
19.07.2019 10:00:00 25,0 16,0 8 4 E - 10 -
19.07.2019 09:00:00 23,0 17,0 11 6 ENE - 10 -
19.07.2019 08:00:00 22,1 15,8 8 4 NNE 1015,4 10 -
19.07.2019 07:00:00 20,0 16,0 4 2 - - 10 -
19.07.2019 06:00:00 19,0 15,0 8 4 NNE - 10 -
19.07.2019 05:00:00 19,4 15,7 9 5 NNE 1014,9 10 0,0
19.07.2019 04:00:00 20,0 17,0 13 7 NNE - 10 -
19.07.2019 03:00:00 21,0 17,0 8 4 N - 10 -
19.07.2019 02:00:00 20,8 16,7 5 3 NNE 1014,5 10 -
19.07.2019 01:00:00 21,0 18,0 5 3 NNE - 10 -
19.07.2019 00:00:00 23,0 19,0 4 2 SE - 10 -
18.07.2019 23:00:00 22,4 18,7 8 4 ESE 1013,7 10 0,0
18.07.2019 22:00:00 24,0 19,0 9 5 SE - 10 -
18.07.2019 21:00:00 25,0 17,0 4 2 S - 10 -
18.07.2019 20:00:00 25,1 16,7 2 1 - 1012,3 10 -
18.07.2019 19:00:00 26,0 16,0 8 4 ONO - 10 -
18.07.2019 18:00:00 26,0 14,0 9 5 O - 10 -
18.07.2019 17:00:00 25,8 15,0 11 6 SSO 1011,6 10 0,0
18.07.2019 16:00:00 24,0 16,0 8 4 S - 10 -
18.07.2019 15:00:00 25,0 19,0 15 8 SSO - 10 -
18.07.2019 14:00:00 26,3 17,6 8 4 SSE 1012,4 10 -
18.07.2019 13:00:00 - - - - - - - -
18.07.2019 12:00:00 25,0 17,0 9 5 NNO - 10 -
18.07.2019 11:00:00 24,8 18,0 8 4 NE 1012,0 10 0,0
18.07.2019 10:00:00 24,0 18,0 11 6 NNE - 10 -
18.07.2019 09:00:00 23,0 17,0 15 8 NNE - 10 -
18.07.2019 08:00:00 22,1 17,2 13 7 N 1011,7 10 -
18.07.2019 07:00:00 21,0 17,0 15 8 NE - 10 -

tt = Temperatura
td = dewpoint
ff = velocità del vento
dd = direzione del vento
ppp = reduced air pressure
vv = visibility
rr = precipitazioni

Stazioni seguenti

WeatherPro
AMSI
MeteoEarth